| time (UTC) | temp F | wind direction | speed MPH | gust MPH | rain 1hr in | rain 24hr in | rain mn in | humidity % | barometer mb |
| 20260903092228 | 80 | 6 | 5.0 | 12.0 | 0.00 | 0.00 | 0.00 | 60 | 1022.3 |
| 20260903091728 | 79 | 27 | 5.0 | 14.0 | 0.00 | 0.00 | 0.00 | 61 | 1022.3 |
| 20260903091227 | 79 | 25 | 6.0 | 14.0 | 0.00 | 0.00 | 0.00 | 61 | 1022.3 |
| 20260903090728 | 79 | 8 | 6.0 | 13.0 | 0.00 | 0.00 | 0.00 | 61 | 1022.3 |
| 20260903090228 | 79 | 33 | 5.0 | 13.0 | 0.00 | 0.00 | 0.00 | 60 | 1022.5 |
| 20260903085730 | 79 | 341 | 5.0 | 12.0 | 0.00 | 0.00 | 0.00 | 61 | 1022.3 |
| 20260903085228 | 79 | 13 | 5.0 | 11.0 | 0.00 | 0.00 | 0.00 | 61 | 1022.3 |
| 20260903084723 | 79 | 3 | 5.0 | 11.0 | 0.00 | 0.00 | 0.00 | 62 | 1022.3 |
| 20260903084225 | 78 | 30 | 5.0 | 11.0 | 0.00 | 0.00 | 0.00 | 62 | 1022.2 |
| 20260903083725 | 78 | 25 | 6.0 | 11.0 | 0.00 | 0.00 | 0.00 | 64 | 1022.3 |
| 20260903083223 | 78 | 327 | 6.0 | 11.0 | 0.00 | 0.00 | 0.00 | 64 | 1022.2 |
| 20260903082725 | 78 | 56 | 5.0 | 11.0 | 0.00 | 0.00 | 0.00 | 65 | 1022.3 |
| 20260903082225 | 78 | 4 | 5.0 | 11.0 | 0.00 | 0.00 | 0.00 | 64 | 1022.1 |
| 20260903081723 | 77 | 51 | 6.0 | 11.0 | 0.00 | 0.00 | 0.00 | 66 | 1022.0 |
| 20260903081224 | 77 | 333 | 5.0 | 11.0 | 0.00 | 0.00 | 0.00 | 66 | 1022.0 |
| 20260903080717 | 77 | 26 | 5.0 | 11.0 | 0.00 | 0.00 | 0.00 | 66 | 1022.0 |
| 20260903080217 | 77 | 349 | 5.0 | 10.0 | 0.00 | 0.00 | 0.00 | 66 | 1021.9 |
| 20260903075717 | 76 | 330 | 5.0 | 10.0 | 0.00 | 0.00 | 0.00 | 67 | 1021.9 |
| 20260903074218 | 76 | 15 | 4.0 | 10.0 | 0.00 | 0.00 | 0.00 | 69 | 1021.7 |
| 20260903073215 | 75 | 20 | 3.0 | 9.0 | 0.00 | 0.00 | 0.00 | 70 | 1021.8 |
| 20260903072714 | 75 | 8 | 5.0 | 10.0 | 0.00 | 0.00 | 0.00 | 71 | 1021.8 |
| 20260903072215 | 74 | 32 | 5.0 | 10.0 | 0.00 | 0.00 | 0.00 | 71 | 1021.7 |
| 20260903071716 | 74 | 24 | 4.0 | 10.0 | 0.00 | 0.00 | 0.00 | 72 | 1021.7 |
| 20260903070709 | 72 | 20 | 4.0 | 9.0 | 0.00 | 0.00 | 0.00 | 74 | 1021.7 |
| 20260903070209 | 71 | 32 | 2.0 | 5.0 | 0.00 | 0.00 | 0.00 | 76 | 1021.7 |
| 20260903065709 | 70 | 337 | 2.0 | 6.0 | 0.00 | 0.00 | 0.00 | 76 | 1021.7 |
| 20260903065209 | 70 | 28 | 2.0 | 6.0 | 0.00 | 0.00 | 0.00 | 75 | 1021.7 |
| 20260903064708 | 70 | 321 | 2.0 | 5.0 | 0.00 | 0.00 | 0.00 | 75 | 1021.7 |
| 20260903064209 | 71 | 343 | 3.0 | 11.0 | 0.00 | 0.00 | 0.00 | 74 | 1021.6 |
| 20260903063706 | 71 | 336 | 4.0 | 11.0 | 0.00 | 0.00 | 0.00 | 74 | 1021.6 |
| 20260903063206 | 71 | 44 | 4.0 | 9.0 | 0.00 | 0.00 | 0.00 | 74 | 1021.5 |
| 20260903062204 | 70 | 357 | 5.0 | 12.0 | 0.00 | 0.00 | 0.00 | 73 | 1021.4 |
| 20260903061704 | 70 | 359 | 6.0 | 12.0 | 0.00 | 0.00 | 0.00 | 74 | 1021.4 |
| 20260903060702 | 70 | 352 | 7.0 | 12.0 | 0.00 | 0.00 | 0.00 | 74 | 1021.3 |
| 20260903060200 | 69 | 318 | 7.0 | 12.0 | 0.00 | 0.00 | 0.00 | 74 | 1021.2 |
| 20260903055652 | 69 | 321 | 7.0 | 12.0 | 0.00 | 0.00 | 0.00 | 74 | 1021.2 |
| 20260903055147 | 69 | 4 | 7.0 | 12.0 | 0.00 | 0.00 | 0.00 | 74 | 1021.1 |
| 20260903054649 | 69 | 330 | 7.0 | 12.0 | 0.00 | 0.00 | 0.00 | 74 | 1021.1 |
| 20260903054149 | 68 | 20 | 6.0 | 12.0 | 0.00 | 0.00 | 0.00 | 74 | 1021.1 |
| 20260903053647 | 68 | 12 | 6.0 | 12.0 | 0.00 | 0.00 | 0.00 | 75 | 1021.1 |
| 20260903053147 | 67 | 21 | 4.0 | 9.0 | 0.00 | 0.00 | 0.00 | 75 | 1021.0 |
| 20260903052648 | 67 | 17 | 3.0 | 7.0 | 0.00 | 0.00 | 0.00 | 74 | 1021.0 |
| 20260903052148 | 67 | 346 | 4.0 | 8.0 | 0.00 | 0.00 | 0.00 | 74 | 1021.0 |
| 20260903051648 | 67 | 14 | 4.0 | 8.0 | 0.00 | 0.00 | 0.00 | 73 | 1021.0 |
| 20260903051150 | 67 | 347 | 4.0 | 8.0 | 0.00 | 0.00 | 0.00 | 72 | 1020.9 |
| 20260903050147 | 67 | 18 | 4.0 | 7.0 | 0.00 | 0.00 | 0.00 | 72 | 1020.7 |
| 20260903045150 | 67 | 5 | 4.0 | 7.0 | 0.00 | 0.00 | 0.00 | 70 | 1020.8 |
| 20260903044647 | 67 | 15 | 4.0 | 7.0 | 0.00 | 0.00 | 0.00 | 70 | 1020.9 |
| 20260903044141 | 67 | 4 | 5.0 | 9.0 | 0.00 | 0.00 | 0.00 | 70 | 1020.8 |
| 20260903043132 | 66 | 8 | 5.0 | 9.0 | 0.00 | 0.00 | 0.00 | 72 | 1020.9 |
| 20260903042631 | 66 | 32 | 5.0 | 9.0 | 0.00 | 0.00 | 0.00 | 74 | 1021.0 |
| 20260903042130 | 67 | 41 | 5.0 | 8.0 | 0.00 | 0.00 | 0.00 | 73 | 1021.0 |
| 20260903041630 | 67 | 15 | 5.0 | 9.0 | 0.00 | 0.00 | 0.00 | 71 | 1021.0 |
| 20260903041130 | 67 | 24 | 5.0 | 9.0 | 0.00 | 0.00 | 0.00 | 71 | 1021.0 |
| 20260903040627 | 67 | 24 | 5.0 | 8.0 | 0.00 | 0.00 | 0.00 | 71 | 1021.0 |
| 20260903040128 | 67 | 14 | 5.0 | 9.0 | 0.00 | 0.00 | 0.00 | 70 | 1020.9 |
| 20260903035125 | 68 | 331 | 5.0 | 8.0 | 0.00 | 0.00 | 0.00 | 70 | 1021.1 |
| 20260903034127 | 68 | 7 | 5.0 | 9.0 | 0.00 | 0.00 | 0.00 | 70 | 1021.1 |
| 20260903033627 | 68 | 6 | 6.0 | 10.0 | 0.00 | 0.00 | 0.00 | 70 | 1021.0 |
| 20260903033125 | 68 | 41 | 6.0 | 10.0 | 0.00 | 0.00 | 0.00 | 69 | 1021.1 |
| 20260903032625 | 68 | 21 | 5.0 | 9.0 | 0.00 | 0.00 | 0.00 | 70 | 1021.0 |
| 20260903032118 | 68 | 15 | 4.0 | 9.0 | 0.00 | 0.00 | 0.00 | 70 | 1021.0 |
| 20260903031619 | 67 | 22 | 5.0 | 9.0 | 0.00 | 0.00 | 0.00 | 72 | 1021.2 |
| 20260903031119 | 67 | 358 | 5.0 | 9.0 | 0.00 | 0.00 | 0.00 | 71 | 1021.1 |
| 20260903030616 | 68 | 2 | 4.0 | 8.0 | 0.00 | 0.00 | 0.00 | 70 | 1021.1 |
| 20260903030117 | 67 | 13 | 4.0 | 7.0 | 0.00 | 0.00 | 0.00 | 70 | 1021.2 |
| 20260903025619 | 67 | 343 | 3.0 | 7.0 | 0.00 | 0.00 | 0.00 | 71 | 1021.2 |
| 20260903025116 | 66 | 15 | 2.0 | 6.0 | 0.00 | 0.00 | 0.00 | 73 | 1021.2 |
| 20260903024617 | 66 | 351 | 1.0 | 5.0 | 0.00 | 0.00 | 0.00 | 72 | 1021.2 |
| 20260903024120 | 66 | 351 | 1.0 | 3.0 | 0.00 | 0.00 | 0.00 | 72 | 1021.2 |
| 20260903023617 | 66 | 335 | 1.0 | 5.0 | 0.00 | 0.00 | 0.00 | 71 | 1021.3 |
| 20260903023117 | 67 | 1 | 2.0 | 5.0 | 0.00 | 0.00 | 0.00 | 71 | 1021.3 |
| 20260903022619 | 67 | 14 | 2.0 | 4.0 | 0.00 | 0.00 | 0.00 | 70 | 1021.2 |
| 20260903022121 | 67 | 11 | 2.0 | 4.0 | 0.00 | 0.00 | 0.00 | 70 | 1021.2 |
| 20260903021621 | 67 | 2 | 2.0 | 4.0 | 0.00 | 0.00 | 0.00 | 69 | 1021.2 |
| 20260903021118 | 68 | 11 | 2.0 | 6.0 | 0.00 | 0.00 | 0.00 | 68 | 1021.3 |
| 20260903020617 | 68 | 1 | 3.0 | 7.0 | 0.00 | 0.00 | 0.00 | 68 | 1021.3 |
| 20260903020119 | 69 | 15 | 4.0 | 9.0 | 0.00 | 0.00 | 0.00 | 67 | 1021.2 |
| 20260903015619 | 69 | 50 | 4.0 | 9.0 | 0.00 | 0.00 | 0.00 | 66 | 1021.3 |
| 20260903015116 | 69 | 11 | 3.0 | 7.0 | 0.00 | 0.00 | 0.00 | 65 | 1021.3 |
| 20260903014620 | 69 | 351 | 4.0 | 8.0 | 0.00 | 0.00 | 0.00 | 65 | 1021.3 |
| 20260903014116 | 69 | 10 | 5.0 | 10.0 | 0.00 | 0.00 | 0.00 | 66 | 1021.2 |
| 20260903013615 | 69 | 9 | 4.0 | 10.0 | 0.00 | 0.00 | 0.00 | 66 | 1021.2 |
| 20260903013115 | 69 | 18 | 2.0 | 6.0 | 0.00 | 0.00 | 0.00 | 66 | 1021.3 |
| 20260903012615 | 69 | 359 | 1.0 | 4.0 | 0.00 | 0.00 | 0.00 | 66 | 1021.3 |
| 20260903012111 | 69 | 334 | 1.0 | 4.0 | 0.00 | 0.00 | 0.00 | 67 | 1021.3 |
| 20260903011611 | 69 | 10 | 0.0 | 3.0 | 0.00 | 0.00 | 0.00 | 66 | 1021.5 |
| 20260903011110 | 69 | 352 | 0.0 | 1.0 | 0.00 | 0.00 | 0.00 | 65 | 1021.4 |
| 20260903010612 | 69 | 9 | 0.0 | 0.0 | 0.00 | 0.00 | 0.00 | 64 | 1021.4 |
| 20260903005608 | 69 | 11 | 0.0 | 3.0 | 0.00 | 0.00 | 0.00 | 63 | 1021.4 |
| 20260903005106 | 70 | 4 | 0.0 | 3.0 | 0.00 | 0.00 | 0.00 | 63 | 1021.5 |
| 20260903004607 | 70 | 21 | 1.0 | 5.0 | 0.00 | 0.00 | 0.00 | 62 | 1021.4 |
| 20260903004105 | 69 | 22 | 2.0 | 5.0 | 0.00 | 0.00 | 0.00 | 63 | 1021.4 |
| 20260903003605 | 70 | 346 | 2.0 | 5.0 | 0.00 | 0.00 | 0.00 | 63 | 1021.4 |
| 20260903003107 | 69 | 350 | 1.0 | 5.0 | 0.00 | 0.00 | 0.00 | 65 | 1021.4 |
| 20260903002607 | 69 | 342 | 1.0 | 3.0 | 0.00 | 0.00 | 0.00 | 65 | 1021.4 |
| 20260903001608 | 69 | 342 | 2.0 | 5.0 | 0.00 | 0.00 | 0.00 | 66 | 1021.5 |
| 20260903000615 | 70 | 341 | 1.0 | 4.0 | 0.00 | 0.00 | 0.00 | 64 | 1021.4 |
| 20260903000111 | 70 | 324 | 1.0 | 4.0 | 0.00 | 0.00 | 0.00 | 63 | 1021.5 |
| 20260902235603 | 71 | 5 | 1.0 | 4.0 | 0.00 | 0.00 | 0.00 | 62 | 1021.5 |
| 20260902235105 | 71 | 357 | 2.0 | 4.0 | 0.00 | 0.00 | 0.00 | 60 | 1021.4 |
| 20260902234605 | 71 | 348 | 2.0 | 5.0 | 0.00 | 0.00 | 0.00 | 59 | 1021.5 |
| 20260902234102 | 72 | 343 | 2.0 | 6.0 | 0.00 | 0.00 | 0.00 | 59 | 1021.4 |
| 20260902233604 | 72 | 18 | 2.0 | 6.0 | 0.00 | 0.00 | 0.00 | 58 | 1021.5 |
| 20260902233104 | 72 | 6 | 1.0 | 4.0 | 0.00 | 0.00 | 0.00 | 59 | 1021.4 |
| 20260902232559 | 72 | 353 | 0.0 | 3.0 | 0.00 | 0.00 | 0.00 | 59 | 1021.4 |
| 20260902232101 | 72 | 337 | 0.0 | 3.0 | 0.00 | 0.00 | 0.00 | 58 | 1021.4 |
| 20260902231600 | 72 | 357 | 1.0 | 3.0 | 0.00 | 0.00 | 0.00 | 57 | 1021.4 |
| 20260902231059 | 72 | 23 | 2.0 | 6.0 | 0.00 | 0.00 | 0.00 | 58 | 1021.4 |
| 20260902230601 | 72 | 13 | 3.0 | 6.0 | 0.00 | 0.00 | 0.00 | 58 | 1021.3 |
| 20260902230059 | 72 | 13 | 3.0 | 6.0 | 0.00 | 0.00 | 0.00 | 59 | 1021.3 |
| 20260902225600 | 72 | 17 | 3.0 | 5.0 | 0.00 | 0.00 | 0.00 | 59 | 1021.4 |
| 20260902225058 | 72 | 5 | 2.0 | 6.0 | 0.00 | 0.00 | 0.00 | 59 | 1021.4 |
| 20260902224053 | 72 | 14 | 3.0 | 6.0 | 0.00 | 0.00 | 0.00 | 59 | 1021.5 |
| 20260902223551 | 72 | 23 | 3.0 | 6.0 | 0.00 | 0.00 | 0.00 | 60 | 1021.4 |
| 20260902223051 | 71 | 356 | 3.0 | 6.0 | 0.00 | 0.00 | 0.00 | 60 | 1021.4 |
| 20260902222550 | 71 | 342 | 3.0 | 5.0 | 0.00 | 0.00 | 0.00 | 60 | 1021.5 |
| 20260902222051 | 71 | 4 | 2.0 | 5.0 | 0.00 | 0.00 | 0.00 | 60 | 1021.6 |
| 20260902220550 | 72 | 302 | 3.0 | 6.0 | 0.00 | 0.00 | 0.00 | 59 | 1021.5 |
| 20260902220051 | 72 | 343 | 3.0 | 6.0 | 0.00 | 0.00 | 0.00 | 58 | 1021.5 |
| 20260902215047 | 72 | 14 | 2.0 | 7.0 | 0.00 | 0.00 | 0.00 | 58 | 1021.5 |
| 20260902214547 | 73 | 308 | 2.0 | 7.0 | 0.00 | 0.00 | 0.00 | 58 | 1021.6 |
| 20260902213549 | 73 | 333 | 2.0 | 5.0 | 0.00 | 0.00 | 0.00 | 58 | 1021.3 |
| 20260902213047 | 72 | 354 | 3.0 | 5.0 | 0.00 | 0.00 | 0.00 | 58 | 1021.4 |
| 20260902212046 | 72 | 13 | 2.0 | 4.0 | 0.00 | 0.00 | 0.00 | 59 | 1021.4 |
| 20260902211043 | 72 | 340 | 2.0 | 5.0 | 0.00 | 0.00 | 0.00 | 58 | 1021.4 |
| 20260902210545 | 73 | 18 | 2.0 | 5.0 | 0.00 | 0.00 | 0.00 | 58 | 1021.4 |
| 20260902210043 | 73 | 339 | 1.0 | 4.0 | 0.00 | 0.00 | 0.00 | 57 | 1021.5 |
| 20260902205545 | 73 | 353 | 1.0 | 4.0 | 0.00 | 0.00 | 0.00 | 57 | 1021.5 |
| 20260902205043 | 73 | 344 | 1.0 | 4.0 | 0.00 | 0.00 | 0.00 | 57 | 1021.5 |
| 20260902204043 | 73 | 16 | 1.0 | 4.0 | 0.00 | 0.00 | 0.00 | 57 | 1021.5 |
| 20260902203543 | 74 | 14 | 1.0 | 4.0 | 0.00 | 0.00 | 0.00 | 56 | 1021.4 |
| 20260902203044 | 74 | 339 | 1.0 | 6.0 | 0.00 | 0.00 | 0.00 | 55 | 1021.4 |
| 20260902202545 | 74 | 349 | 1.0 | 6.0 | 0.00 | 0.00 | 0.00 | 55 | 1021.4 |
| 20260902202043 | 73 | 356 | 0.0 | 2.0 | 0.00 | 0.00 | 0.00 | 56 | 1021.4 |
| 20260902201543 | 73 | 8 | 0.0 | 2.0 | 0.00 | 0.00 | 0.00 | 56 | 1021.4 |
| 20260902201040 | 74 | 345 | 0.0 | 1.0 | 0.00 | 0.00 | 0.00 | 56 | 1021.3 |
| 20260902200539 | 74 | 0 | 0.0 | 0.0 | 0.00 | 0.00 | 0.00 | 56 | 1021.3 |
| 20260902200038 | 74 | 352 | 0.0 | 0.0 | 0.00 | 0.00 | 0.00 | 56 | 1021.3 |
| 20260902195037 | 74 | 351 | 0.0 | 2.0 | 0.00 | 0.00 | 0.00 | 55 | 1021.3 |
| 20260902194537 | 74 | 7 | 0.0 | 2.0 | 0.00 | 0.00 | 0.00 | 54 | 1021.3 |
| 20260902193030 | 75 | 349 | 0.0 | 2.0 | 0.00 | 0.00 | 0.00 | 54 | 1021.3 |
| 20260902192529 | 75 | 276 | 0.0 | 5.0 | 0.00 | 0.00 | 0.00 | 53 | 1021.3 |
| 20260902192029 | 75 | 327 | 1.0 | 5.0 | 0.00 | 0.00 | 0.00 | 53 | 1021.4 |
| 20260902191026 | 75 | 324 | 1.0 | 6.0 | 0.00 | 0.00 | 0.00 | 53 | 1021.3 |
| 20260902190029 | 75 | 283 | 1.0 | 6.0 | 0.00 | 0.00 | 0.00 | 51 | 1021.3 |
| 20260902184528 | 76 | 286 | 1.0 | 6.0 | 0.00 | 0.00 | 0.00 | 51 | 1021.4 |
| 20260902184024 | 76 | 305 | 2.0 | 7.0 | 0.00 | 0.00 | 0.00 | 51 | 1021.3 |
| 20260902183524 | 76 | 297 | 2.0 | 7.0 | 0.00 | 0.00 | 0.00 | 51 | 1021.2 |
| 20260902183024 | 76 | 299 | 2.0 | 7.0 | 0.00 | 0.00 | 0.00 | 51 | 1021.2 |
| 20260902182517 | 76 | 247 | 2.0 | 7.0 | 0.00 | 0.00 | 0.00 | 52 | 1021.1 |
| 20260902182019 | 76 | 275 | 2.0 | 7.0 | 0.00 | 0.00 | 0.00 | 53 | 1021.0 |
| 20260902181517 | 76 | 263 | 1.0 | 7.0 | 0.00 | 0.00 | 0.00 | 53 | 1021.0 |
| 20260902181016 | 76 | 288 | 2.0 | 7.0 | 0.00 | 0.00 | 0.00 | 53 | 1020.9 |
| 20260902180516 | 76 | 280 | 2.0 | 7.0 | 0.00 | 0.00 | 0.00 | 54 | 1020.9 |
| 20260902180015 | 76 | 296 | 2.0 | 7.0 | 0.00 | 0.00 | 0.00 | 54 | 1020.9 |
| 20260902175512 | 77 | 266 | 2.0 | 6.0 | 0.00 | 0.00 | 0.00 | 54 | 1020.9 |
| 20260902174514 | 77 | 281 | 2.0 | 7.0 | 0.00 | 0.00 | 0.00 | 54 | 1020.8 |
| 20260902173508 | 78 | 285 | 3.0 | 8.0 | 0.00 | 0.00 | 0.00 | 54 | 1020.8 |
| 20260902172516 | 79 | 281 | 3.0 | 9.0 | 0.00 | 0.00 | 0.00 | 54 | 1020.8 |
| 20260902172006 | 80 | 276 | 3.0 | 8.0 | 0.00 | 0.00 | 0.00 | 53 | 1020.8 |
| 20260902171506 | 80 | 259 | 2.0 | 6.0 | 0.00 | 0.00 | 0.00 | 52 | 1020.8 |
| 20260902170506 | 81 | 280 | 4.0 | 9.0 | 0.00 | 0.00 | 0.00 | 51 | 1020.8 |
| 20260902170005 | 82 | 278 | 4.0 | 9.0 | 0.00 | 0.00 | 0.00 | 50 | 1020.8 |
| 20260902165505 | 83 | 266 | 3.0 | 9.0 | 0.00 | 0.00 | 0.00 | 49 | 1020.9 |
| 20260902165004 | 83 | 251 | 2.0 | 7.0 | 0.00 | 0.00 | 0.00 | 48 | 1020.8 |
| 20260902164503 | 84 | 257 | 2.0 | 6.0 | 0.00 | 0.00 | 0.00 | 46 | 1020.8 |
| 20260902164002 | 84 | 241 | 2.0 | 6.0 | 0.00 | 0.00 | 0.00 | 45 | 1020.8 |
| 20260902163502 | 85 | 262 | 2.0 | 6.0 | 0.00 | 0.00 | 0.00 | 44 | 1020.8 |
| 20260902163003 | 85 | 261 | 1.0 | 5.0 | 0.00 | 0.00 | 0.00 | 43 | 1020.9 |
| 20260902162502 | 85 | 270 | 1.0 | 4.0 | 0.00 | 0.00 | 0.00 | 43 | 1020.9 |
| 20260902162002 | 85 | 262 | 2.0 | 6.0 | 0.00 | 0.00 | 0.00 | 42 | 1020.9 |
| 20260902161502 | 85 | 292 | 1.0 | 6.0 | 0.00 | 0.00 | 0.00 | 41 | 1020.9 |
| 20260902161000 | 86 | 261 | 1.0 | 5.0 | 0.00 | 0.00 | 0.00 | 43 | 1020.9 |
| 20260902160454 | 85 | 273 | 1.0 | 5.0 | 0.00 | 0.00 | 0.00 | 41 | 1020.9 |
| 20260902155455 | 85 | 255 | 2.0 | 7.0 | 0.00 | 0.00 | 0.00 | 41 | 1021.0 |
| 20260902154956 | 85 | 285 | 2.0 | 7.0 | 0.00 | 0.00 | 0.00 | 41 | 1021.0 |
| 20260902153954 | 86 | 246 | 2.0 | 7.0 | 0.00 | 0.00 | 0.00 | 40 | 1021.0 |
| 20260902152952 | 86 | 222 | 2.0 | 8.0 | 0.00 | 0.00 | 0.00 | 38 | 1020.9 |
| 20260902152452 | 86 | 258 | 1.0 | 8.0 | 0.00 | 0.00 | 0.00 | 42 | 1020.9 |
| 20260902151953 | 86 | 248 | 3.0 | 10.0 | 0.00 | 0.00 | 0.00 | 41 | 1020.9 |
| 20260902150954 | 86 | 242 | 4.0 | 11.0 | 0.00 | 0.00 | 0.00 | 41 | 1020.9 |
| 20260902150451 | 85 | 304 | 3.0 | 9.0 | 0.00 | 0.00 | 0.00 | 42 | 1020.9 |
| 20260902145955 | 85 | 257 | 2.0 | 8.0 | 0.00 | 0.00 | 0.00 | 42 | 1020.9 |
| 20260902144948 | 85 | 217 | 1.0 | 7.0 | 0.00 | 0.00 | 0.00 | 39 | 1020.9 |
| 20260902144448 | 85 | 243 | 2.0 | 7.0 | 0.00 | 0.00 | 0.00 | 38 | 1020.9 |
| 20260902143948 | 86 | 262 | 2.0 | 9.0 | 0.00 | 0.00 | 0.00 | 39 | 1020.9 |
| 20260902143446 | 86 | 264 | 3.0 | 9.0 | 0.00 | 0.00 | 0.00 | 38 | 1020.9 |
| 20260902142946 | 86 | 213 | 2.0 | 9.0 | 0.00 | 0.00 | 0.00 | 38 | 1020.9 |
| 20260902142446 | 87 | 247 | 2.0 | 6.0 | 0.00 | 0.00 | 0.00 | 37 | 1021.0 |
| 20260902141945 | 87 | 238 | 3.0 | 8.0 | 0.00 | 0.00 | 0.00 | 37 | 1021.0 |
| 20260902141446 | 87 | 226 | 4.0 | 10.0 | 0.00 | 0.00 | 0.00 | 37 | 1021.0 |
| 20260902140947 | 87 | 267 | 3.0 | 10.0 | 0.00 | 0.00 | 0.00 | 36 | 1021.0 |
| 20260902140446 | 87 | 221 | 4.0 | 11.0 | 0.00 | 0.00 | 0.00 | 37 | 1021.1 |
| 20260902135945 | 87 | 242 | 5.0 | 11.0 | 0.00 | 0.00 | 0.00 | 35 | 1021.2 |
| 20260902135446 | 87 | 197 | 3.0 | 9.0 | 0.00 | 0.00 | 0.00 | 36 | 1021.2 |
| 20260902134947 | 88 | 210 | 2.0 | 7.0 | 0.00 | 0.00 | 0.00 | 34 | 1021.2 |
| 20260902134444 | 88 | 220 | 3.0 | 9.0 | 0.00 | 0.00 | 0.00 | 36 | 1021.3 |
| 20260902133444 | 87 | 250 | 4.0 | 12.0 | 0.00 | 0.00 | 0.00 | 35 | 1021.3 |
| 20260902132944 | 87 | 199 | 4.0 | 12.0 | 0.00 | 0.00 | 0.00 | 34 | 1021.3 |
| 20260902132445 | 87 | 203 | 3.0 | 9.0 | 0.00 | 0.00 | 0.00 | 34 | 1021.4 |
| 20260902131442 | 87 | 205 | 2.0 | 8.0 | 0.00 | 0.00 | 0.00 | 35 | 1021.5 |
| 20260902130944 | 87 | 257 | 2.0 | 8.0 | 0.00 | 0.00 | 0.00 | 36 | 1021.5 |
| 20260902130442 | 87 | 309 | 3.0 | 8.0 | 0.00 | 0.00 | 0.00 | 36 | 1021.5 |
| 20260902125942 | 87 | 233 | 3.0 | 10.0 | 0.00 | 0.00 | 0.00 | 37 | 1021.6 |
| 20260902125446 | 86 | 212 | 2.0 | 10.0 | 0.00 | 0.00 | 0.00 | 37 | 1021.5 |
| 20260902124945 | 85 | 203 | 1.0 | 7.0 | 0.00 | 0.00 | 0.00 | 44 | 1021.7 |
| 20260902124442 | 85 | 67 | 3.0 | 11.0 | 0.00 | 0.00 | 0.00 | 42 | 1021.8 |
| 20260902123942 | 86 | 210 | 2.0 | 11.0 | 0.00 | 0.00 | 0.00 | 42 | 1021.7 |
| 20260902123438 | 86 | 141 | 0.0 | 9.0 | 0.00 | 0.00 | 0.00 | 44 | 1021.9 |
| 20260902122939 | 86 | 207 | 1.0 | 7.0 | 0.00 | 0.00 | 0.00 | 44 | 1021.9 |
| 20260902122439 | 85 | 214 | 2.0 | 7.0 | 0.00 | 0.00 | 0.00 | 43 | 1022.0 |
| 20260902121437 | 85 | 134 | 3.0 | 9.0 | 0.00 | 0.00 | 0.00 | 47 | 1022.0 |
| 20260902115938 | 85 | 155 | 2.0 | 8.0 | 0.00 | 0.00 | 0.00 | 46 | 1022.1 |
| 20260902115438 | 85 | 212 | 1.0 | 8.0 | 0.00 | 0.00 | 0.00 | 46 | 1022.1 |
| 20260902114938 | 84 | 198 | 1.0 | 3.0 | 0.00 | 0.00 | 0.00 | 45 | 1022.2 |
| 20260902114438 | 84 | 278 | 3.0 | 7.0 | 0.00 | 0.00 | 0.00 | 46 | 1022.2 |
| 20260902113938 | 84 | 222 | 4.0 | 8.0 | 0.00 | 0.00 | 0.00 | 46 | 1022.2 |
| 20260902113440 | 84 | 285 | 3.0 | 8.0 | 0.00 | 0.00 | 0.00 | 47 | 1022.3 |
| 20260902112938 | 84 | 201 | 2.0 | 7.0 | 0.00 | 0.00 | 0.00 | 49 | 1022.2 |
| 20260902112438 | 85 | 227 | 2.0 | 6.0 | 0.00 | 0.00 | 0.00 | 50 | 1022.5 |
| 20260902111938 | 85 | 162 | 1.0 | 6.0 | 0.00 | 0.00 | 0.00 | 49 | 1022.5 |
| 20260902111439 | 84 | 141 | 2.0 | 6.0 | 0.00 | 0.00 | 0.00 | 48 | 1022.5 |
| 20260902110436 | 84 | 138 | 3.0 | 9.0 | 0.00 | 0.00 | 0.00 | 51 | 1022.6 |
| 20260902105938 | 84 | 119 | 2.0 | 9.0 | 0.00 | 0.00 | 0.00 | 52 | 1022.5 |
| 20260902105437 | 84 | 218 | 1.0 | 5.0 | 0.00 | 0.00 | 0.00 | 51 | 1022.6 |
| 20260902104936 | 85 | 277 | 1.0 | 5.0 | 0.00 | 0.00 | 0.00 | 52 | 1022.7 |
| 20260902104434 | 84 | 122 | 1.0 | 5.0 | 0.00 | 0.00 | 0.00 | 52 | 1022.8 |
| 20260902103432 | 83 | 283 | 0.0 | 3.0 | 0.00 | 0.00 | 0.00 | 52 | 1022.8 |
| 20260902102420 | 82 | 265 | 1.0 | 6.0 | 0.00 | 0.00 | 0.00 | 53 | 1023.0 |
| 20260902101915 | 83 | 202 | 1.0 | 6.0 | 0.00 | 0.00 | 0.00 | 53 | 1023.0 |
| 20260902101415 | 82 | 136 | 2.0 | 6.0 | 0.00 | 0.00 | 0.00 | 52 | 1023.0 |
| 20260902100416 | 82 | 191 | 2.0 | 6.0 | 0.00 | 0.00 | 0.00 | 54 | 1023.1 |
| 20260902095915 | 82 | 144 | 2.0 | 6.0 | 0.00 | 0.00 | 0.00 | 54 | 1023.2 |
| 20260902095415 | 82 | 221 | 2.0 | 6.0 | 0.00 | 0.00 | 0.00 | 54 | 1023.1 |
| 20260902094915 | 82 | 161 | 1.0 | 6.0 | 0.00 | 0.00 | 0.00 | 54 | 1023.1 |
| 20260902093416 | 81 | 95 | 2.0 | 7.0 | 0.00 | 0.00 | 0.00 | 55 | 1023.2 |
| 20260902092916 | 81 | 137 | 1.0 | 7.0 | 0.00 | 0.00 | 0.00 | 55 | 1023.2 |
| 20260902092423 | 82 | 143 | 0.0 | 3.0 | 0.00 | 0.00 | 0.00 | 56 | 1023.1 |